METEOR 2-13

导读 | 星芒AI

METEOR 2-13 是俄罗斯于1989年发射的一颗气象卫星,属于 METEOR 2 系列。该卫星主要用于地球观测,搭载了多种遥感仪器,能够收集气象、水文和环境数据。它在近地轨道上运行,为气象预报和科学研究提供了重要支持。尽管其任务已结束,但 METEOR 2-13 仍被用于研究轨道碎片问题。

基本信息
目录编号:
16408
目录名称:
METEOR 2-13
国际标识:
1985-119A
轨道中心:
EARTH
卫星名称:
METEOR 2-13
卫星全名:
--
卫星状态:
在轨 (已飞行14597 天)
发射日期:
1985-12-26 UTC
国别 :
俄罗斯(独联体) (CIS)
星等 :
--
轨道信息
数据来源 国际轨道数据 AOE轨道数据
星历时间 2025-12-13T04:45:06+0800
13小时前
查看轨道信息
2025-12-10T11:00:00+0800
3天前
查看轨道信息
半长轴 7322.325km 7322.303km
偏心率 0.0014695 0.0014655
轨道倾角 82.538° 82.539°
近地点辐角 285.439° 294.592°
升交点赤经 42.668° 44.852°
平近点角 74.515° 87.545°
近地点 933.429km 933.437km
远地点 954.951km 954.899km
周期 103.928分钟 103.928分钟
每日圈数 13.855727 13.855789
详细信息
使用方式:
暂无
2D轨道图
3D轨道图
轨道高度分析图
轨道倾角分析图
轨道综合分析图
查看轨道综合分析图